Tracking 30264 objects as of 15-Feb-2025
HD Live streaming from Space Station
objects crossing your sky now

STARLINK-4279

Track STARLINK-4279 now!
10-day predictions
STARLINK-4279 is classified as:


NORAD ID: 53018
Int'l Code: 2022-076AJ
Perigee: 545.8 km
Apogee: 547.9 km
Inclination: 53.2 °
Period: 95.4 minutes
Semi major axis: 6917 km
RCS: Unknown
Launch date: July 7, 2022
Source: United States (US)
Launch site: AIR FORCE EASTERN TEST RANGE (AFETR)
Your satellite tracking list
Your tracking list is empty




NASA's NSSDC Master Catalog

Two Line Element Set (TLE):
1 53018U 22076AJ  25046.34783838  .00000375  00000-0  41658-4 0  9998
2 53018  53.2187  23.2226 0001510  93.8886 266.2278 15.08838624144503
Source of the keplerian elements: AFSPC